"Pseudo-MPEC" for P22orSE

Created 2026 Jul 26 22:35:15 UT using Find_Orb

Click here for an explanation of pseudo-MPECs

 
 Astrometry: 
     P22orSE*0C2026 07 19.39043219 53 24.063-24 53 47.76   ~7NF5 21.53wXNEOCPF52
     P22orSE 0C2026 07 19.39579119 53 23.514-24 54 02.42   ~7NF5 21.18wXNEOCPF52
     P22orSE 0C2026 07 19.40113119 53 22.957-24 54 16.59   ~7NF5 21.16wXNEOCPF52
     P22orSE 0C2026 07 19.50875219 53 12.108-24 58 57.28   ~7NF5 21.34GVNEOCPF52
     P22orSE 0C2026 07 19.51011119 53 11.961-24 59 01.04   ~7NF5 21.26GVNEOCPF52
     P22orSE 0C2026 07 19.51079619 53 11.893-24 59 02.81   ~7NF5 21.18GVNEOCPF52
     P22orSE 1C2026 07 20.41378419 51 44.586-25 38 26.40   ~7NF5 21.32GVNEOCPT12

Station data:
(F52) Pan-STARRS 2, Haleakala  (N20.707382 W156.255910)  US/Hawaii.
   Observers J. Herman, T. Lowe, P. Minguez, A. Schultz, I. Smith. Measurers
   K. Chambers, T. de Boer, J. Fairlamb, H. Gao, M. Huber, C.-C. Lin, E.
   Magnier, Y. Ramanjooloo, R. Wainscoat, R. Weryk. 1.8-m Ritchey-Chrétien +
   CCD.
(T12) Mauna Kea-UH/Tholen NEO Follow-Up (2.24-m)  (N19.822991 W155.469434)
   US/Hawaii.  Observer R. Weryk. 2.24-m f/10.1 University of Hawaii
   reflector.

Orbital elements:  P22orSE
   Perihelion 2026 Nov 24.432431 +/- 11 TT = 10:22:42.0 (JD 2461368.932431)
Epoch 2026 Jul 20.0 TT = JDT 2461241.5   Earth MOID: 0.7721      AutoNEOCP
M 319.809948120 +/- 5.0             (J2000 ecliptic)
n   0.315383232 +/- 0.0205          Peri.  244.974453 +/- 9
a   2.137520635 +/- 0.0924          Node   114.086628 +/- 0.07
e   0.23625019 +/- 0.0454           Incl.   41.891608 +/- 1.8
P   3.12511                H 20.30  G  0.15   U 10.1
q 1.632530978 +/- 0.0902    Q 2.642510291 +/- 0.181
From 7 observations 2026 July 19-20 (24.6 hr); mean residual 0".18
Residuals in arcseconds: 
260719 F52  .15+  .45+    260719 F52  .09+  .16+    260720 T12  .00   .00     
260719 F52  .04+  .16-    260719 F52  .04-  .06-    
260719 F52  .21-  .33-    260719 F52  .03-  .05-    

Ephemerides (geocentric):
Date (UTC) HH   RA             Dec           delta  r     elong  mag " sig PA
---- --------  ------------   ------------  ------ ------ -----  --- --------
2026 07 26 23  19 40 39.806   -30 21 32.96  .79921 1.8001 165.3 21.7 48.6  28
2026 07 27 00  19 40 35.461   -30 23 19.26  .79924 1.8000 165.2 21.7 49.2  28
2026 07 27 01  19 40 31.116   -30 25 05.52  .79927 1.7998 165.2 21.7 49.8  28
2026 07 27 02  19 40 26.769   -30 26 51.74  .79930 1.7997 165.1 21.7 50.3  28
2026 07 27 03  19 40 22.422   -30 28 37.93  .79933 1.7996 165.1 21.7 50.9  28
2026 07 27 04  19 40 18.074   -30 30 24.08  .79936 1.7995 165.0 21.7 51.4  28
2026 07 27 05  19 40 13.725   -30 32 10.19  .79940 1.7994 164.9 21.7 52.0  28
2026 07 27 06  19 40 09.376   -30 33 56.26  .79943 1.7993 164.9 21.7 52.6  28
2026 07 27 07  19 40 05.025   -30 35 42.30  .79946 1.7992 164.8 21.7 53.2  28
2026 07 27 08  19 40 00.674   -30 37 28.30  .79950 1.7991 164.7 21.7 53.7  28
2026 07 27 09  19 39 56.322   -30 39 14.26  .79953 1.7990 164.7 21.7 54.3  28
2026 07 27 10  19 39 51.970   -30 41 00.18  .79957 1.7989 164.6 21.7 54.9  28
2026 07 27 11  19 39 47.616   -30 42 46.07  .79961 1.7988 164.5 21.7 55.5  28
2026 07 27 12  19 39 43.262   -30 44 31.91  .79964 1.7987 164.5 21.7 56.1  28
2026 07 27 13  19 39 38.907   -30 46 17.72  .79968 1.7986 164.4 21.7 56.6  28
2026 07 27 14  19 39 34.552   -30 48 03.49  .79972 1.7985 164.4 21.7 57.2  28
2026 07 27 15  19 39 30.196   -30 49 49.21  .79976 1.7984 164.3 21.7 57.8  28
2026 07 27 16  19 39 25.839   -30 51 34.90  .79980 1.7983 164.2 21.7 58.4  28
2026 07 27 17  19 39 21.482   -30 53 20.55  .79984 1.7982 164.2 21.7 59.0  28
2026 07 27 18  19 39 17.124   -30 55 06.16  .79988 1.7981 164.1 21.7 59.6  28
2026 07 27 19  19 39 12.765   -30 56 51.73  .79992 1.7980 164.0 21.7 60.2  28
2026 07 27 20  19 39 08.406   -30 58 37.25  .79996 1.7979 164.0 21.7 60.8  28
2026 07 27 21  19 39 04.046   -31 00 22.74  .80000 1.7978 163.9 21.7 61.4  28
2026 07 27 22  19 38 59.685   -31 02 08.19  .80005 1.7977 163.8 21.7 62.1  28
2026 07 27 23  19 38 55.324   -31 03 53.59  .80009 1.7976 163.8 21.7 62.7  28
2026 07 28 00  19 38 50.962   -31 05 38.96  .80013 1.7975 163.7 21.7 63.3  28
2026 07 28 01  19 38 46.600   -31 07 24.28  .80018 1.7974 163.6 21.7 63.9  28
2026 07 28 02  19 38 42.237   -31 09 09.56  .80022 1.7973 163.6 21.7 64.5  28
2026 07 28 03  19 38 37.874   -31 10 54.80  .80027 1.7972 163.5 21.7 65.1  28
2026 07 28 04  19 38 33.510   -31 12 39.99  .80032 1.7971 163.5 21.7 65.8  28
2026 07 28 05  19 38 29.146   -31 14 25.15  .80036 1.7970 163.4 21.7 66.4  28
2026 07 28 06  19 38 24.781   -31 16 10.26  .80041 1.7969 163.3 21.7 67.0  28
2026 07 28 07  19 38 20.416   -31 17 55.33  .80046 1.7968 163.3 21.7 67.7  28
2026 07 28 08  19 38 16.050   -31 19 40.35  .80051 1.7967 163.2 21.7 68.3  28
2026 07 28 09  19 38 11.684   -31 21 25.33  .80056 1.7966 163.1 21.7 68.9  28
2026 07 28 10  19 38 07.317   -31 23 10.27  .80061 1.7965 163.1 21.7 69.6  28
2026 07 28 11  19 38 02.950   -31 24 55.17  .80066 1.7964 163.0 21.7 70.2  28
2026 07 28 12  19 37 58.582   -31 26 40.02  .80071 1.7963 162.9 21.7 70.9  28
2026 07 28 13  19 37 54.214   -31 28 24.83  .80076 1.7962 162.9 21.7 71.5  28
2026 07 28 14  19 37 49.846   -31 30 09.59  .80081 1.7961 162.8 21.7 72.2  28
2026 07 28 15  19 37 45.477   -31 31 54.31  .80087 1.7960 162.8 21.7 72.8  28
2026 07 28 16  19 37 41.108   -31 33 38.98  .80092 1.7959 162.7 21.7 73.5  28
2026 07 28 17  19 37 36.738   -31 35 23.61  .80097 1.7958 162.6 21.7 74.1  28
2026 07 28 18  19 37 32.368   -31 37 08.20  .80103 1.7957 162.6 21.7 74.8  28
2026 07 28 19  19 37 27.998   -31 38 52.74  .80108 1.7956 162.5 21.7 75.4  28
2026 07 28 20  19 37 23.627   -31 40 37.23  .80114 1.7955 162.4 21.7 76.1  28
2026 07 28 21  19 37 19.257   -31 42 21.68  .80120 1.7954 162.4 21.7 76.8  28
2026 07 28 22  19 37 14.885   -31 44 06.08  .80125 1.7953 162.3 21.7 77.4  28